ARIANE 5 DEB (SYLDA), 41750

Orbit data source: Space-Track

ARIANE 5 DEB (SYLDA), 41750 is space debris in HEO originally from a launch on Wed, 24 Aug 2016 UTC launched from the French Guiana (FRGUI). Debris objects in space refer to the collection of defunct objects orbiting the Earth. Examples of debris include non-operational satellites, rocket bodies, and fragments generated from explosions, collisions, or faulty payload assembly.

Loading next visibility...
Identifier
41750, 2016-053D
Orbit
HEO
Country
Flag of FRFR
Related business
Manufacturer
ADS/Bremen
Mission
Spacecraft
Bus & Motor
SYLDA 5, Unknown motor
Mass
440 kg wet, 440 kg dry
Launch date (UTC)
2016-08-24 (10 years ago)
Launch vehicle
Unknown
Launch site
French Guiana (FRGUI)
Object type
Payload
Rocket body
Debris
Shape & HBR
Cyl, 2.8 m
Radar Cross Section
27.391 m², Large (>1 m²)

Expand to show TLE details & history
Last TLE update: 17 hours ago

TLE from 17 hours ago
0 ARIANE 5 DEB (SYLDA)
1 41750U 16053D   26171.27246473  .00011306  00000-0  31904-2 0  9994
2 41750   6.0180 181.8701 5786214  41.7826 350.3147  4.34144567108427
Epoch: 2026-06-20T06:32Z
TLE epoch observation values (Epoch: 2026-06-20T06:32:20.952Z)
Latitude
-0.00002°
Longitude
175.24024°
Altitude
999.692 km
Speed
9.107 km/s
True Right ascension
12h 07m 16s
True Declination
0° 00' 00"
Sunlit
Object was in daylight at epoch
Visualization orbit readout
Latitude
Unknown
Longitude
Unknown
Altitude
Unknown
Speed
Unknown
Apparent Right ascension
Unknown
Apparent Declination
Unknown
Sunlit
N/A
Visualization observer readout
Local Sidereal Time
10:18:43
Azimuth
Unknown
Elevation
Unknown
Doppler factor
Unknown
Orbital elements
Apogee altitude
18,686.504 km
Perigee altitude
312.323 km
Semi-major axis
15,877.55 km
Eccentricity
0.57862
Inclination
6.018°
RAAN
181.8701°
Arg. of periapsis
41.7826°
True anomaly
318.36839°
Mean anomaly
350.3147°
Eccentric anomaly
337.77482°
Mean motion
1.08485 °/min
Orbital period
331.84 mins
BSTAR
0.0031904
Loading maneuver chart data...
Computing Atmospheric mass density...
Loading historical data...
Loading historical data...
Loading historical data...
Loading historical data...
Loading historical data...
Loading historical data...
Loading historical data...

Documentation

Showing up to 5 results
|